Tracking 34138 objects as of 15-May-2026
HD Live streaming from Space Station
objects crossing your sky now

STARLINK-37091

Track STARLINK-37091 now!
10-day predictions
STARLINK-37091 is classified as:


NORAD ID: 68191
Int'l Code: 2026-050AA
Perigee: 465.9 km
Apogee: 468.5 km
Inclination: 53.2 °
Period: 93.8 minutes
Semi major axis: 6838 km
RCS: Unknown
Launch date: March 14, 2026
Source: United States (US)
Launch site: AIR FORCE EASTERN TEST RANGE (AFETR)
Your satellite tracking list
Your tracking list is empty




NASA's NSSDC Master Catalog

Two Line Element Set (TLE):
1 68191U 26050AA  26135.02961237 -.00027432  00000-0 -78119-3 0  9994
2 68191  53.1584 318.3469 0001857 346.5073  13.5880 15.35284620 10840
Source of the keplerian elements: AFSPC